Miami Beach, Florida, United States (33109)
Lat: 25.79N, Lon: 80.13W
Wx Zone: FLZ173
Local Info
Past Weather Observations for Monday, April 21, 2014

NOTE: This archive is for the closest National Weather Service station to Miami Beach. Information may differ from the station used for current weather conditions.

Time Weather Temperature Dewpoint Humidity Pressure Winds Precip Visibility
23:53
Mostly Cloudy
72°F / 22°C 63°F / 17°C 73% 29.98 in
(1015 mb)
Variable 3.5 mph
(Variable 6 kph)
- 10SM
22:53
Mostly Cloudy
73°F / 23°C 63°F / 17°C 69% 29.98 in
(1015 mb)
NE 8.1 mph
(NE 13 kph)
- 10SM
22:29
Overcast
73°F / 23°C 64°F / 18°C 74% 29.98 in
(1015 mb)
NE 6.9 mph
(NE 11 kph)
- 10SM
21:53
Overcast
73°F / 23°C 64°F / 18°C 74% 29.98 in
(1015 mb)
NE 5.8 mph
(NE 9 kph)
- 10SM
20:53
Mostly Cloudy
73°F / 23°C 64°F / 18°C 74% 29.98 in
(1015 mb)
NE 8.1 mph
(NE 13 kph)
- 10SM
19:53
Mostly Cloudy
73°F / 23°C 64°F / 18°C 74% 29.95 in
(1014 mb)
NE 6.9 mph
(NE 11 kph)
- 10SM
18:53
Partly Cloudy
75°F / 24°C 64°F / 18°C 69% 29.95 in
(1014 mb)
NE 8.1 mph
(NE 13 kph)
- 10SM
17:53
Mostly Cloudy
79°F / 26°C 64°F / 18°C 61% 29.95 in
(1014 mb)
NE 5.8 mph
(NE 9 kph)
- 10SM
16:53
Mostly Cloudy
81°F / 27°C 59°F / 15°C 48% 29.95 in
(1014 mb)
Variable 6.9 mph
(Variable 11 kph)
- 10SM
15:53
Clear
81°F / 27°C 59°F / 15°C 48% 29.95 in
(1014 mb)
NW 5.8 mph
(NW 9 kph)
- 10SM
14:53
Partly Cloudy
81°F / 27°C 61°F / 16°C 51% 29.95 in
(1014 mb)
WNW 10.4 mph
(WNW 17 kph)
- 10SM
13:53
Partly Cloudy
81°F / 27°C 61°F / 16°C 51% 29.98 in
(1015 mb)
NNW 10.4 mph
(NNW 17 kph)
- 10SM
12:53
Mostly Cloudy
79°F / 26°C 61°F / 16°C 54% 30.01 in
(1016 mb)
NNW 11.5 mph
(NNW 19 kph)
- 10SM
11:53
Mostly Cloudy
79°F / 26°C 61°F / 16°C 54% 30.01 in
(1016 mb)
NNW 8.1 mph
(NNW 13 kph)
- 10SM
10:53
Mostly Cloudy
75°F / 24°C 61°F / 16°C 61% 30.04 in
(1017 mb)
NNW 10.4 mph
(NNW 17 kph)
- 10SM
09:53
Partly Cloudy
73°F / 23°C 61°F / 16°C 65% 30.04 in
(1017 mb)
NW 9.2 mph
(NW 15 kph)
- 10SM
08:53
Partly Cloudy
72°F / 22°C 61°F / 16°C 69% 30.04 in
(1017 mb)
NNW 5.8 mph
(NNW 9 kph)
- 10SM
07:53
Partly Cloudy
68°F / 20°C 59°F / 15°C 73% 30.04 in
(1017 mb)
NNW 6.9 mph
(NNW 11 kph)
- 10SM
06:53
Partly Cloudy
64°F / 18°C 57°F / 14°C 78% 30.04 in
(1017 mb)
NNW 8.1 mph
(NNW 13 kph)
- 10SM
05:53
Partly Cloudy
64°F / 18°C 57°F / 14°C 78% 30.04 in
(1017 mb)
NNW 3.5 mph
(NNW 6 kph)
- 10SM
04:53
Clear
64°F / 18°C 57°F / 14°C 78% 30.01 in
(1016 mb)
NNW 6.9 mph
(NNW 11 kph)
- 10SM
03:53
Clear
66°F / 19°C 61°F / 16°C 83% 30.01 in
(1016 mb)
Variable 5.8 mph
(Variable 9 kph)
- 10SM
02:53
Clear
66°F / 19°C 59°F / 15°C 78% 30.01 in
(1016 mb)
N 5.8 mph
(N 9 kph)
- 10SM
01:53
Partly Cloudy
66°F / 19°C 61°F / 16°C 83% 30.01 in
(1016 mb)
N 6.9 mph
(N 11 kph)
- 10SM
00:53
Partly Cloudy
68°F / 20°C 61°F / 16°C 78% 30.04 in
(1017 mb)
N 6.9 mph
(N 11 kph)
- 10SM
Time Weather Temperature Dewpoint Humidity Pressure Winds Precip Visibility


Weather for websites

WeatherForYou.com, LLC is not responsible for any damages or problems caused by this service. Current weather conditions are obtained from the closest station including government and personal stations which may have varying degrees of accuracy. Weather forecasts are derived from the NOAA NDFD. Like all things, this site belongs to Jesus Christ... He just trusts me to maintain it. If you have any questions or comments email webmaster@weatherforyou.com

Copyright © 2014, WeatherForYou.com LLC. All rights reserved.